Regional Weather Roundup
Issued by NWS Cleveland, OH

Home | Current Version | Previous Version | Graphics & Text | Print | Product List | Glossary On
Versions: 1 2 3 4 5 6 7 8 9 10 11 12 13 14 15 16 17 18 19 20 21 22 23 24 25 26 27 28 29 30 31 32 33 34 35 36 37 38 39 40 41 42 43 44 45 46 47 48 49 50
000
ASUS41 KCLE 292210
RWRCLE
OHIO REGIONAL WEATHER ROUNDUP
NATIONAL WEATHER SERVICE WILMINGTON, OH
600 PM EDT THU SEP 29 2016

NOTE: "FAIR" INDICATES FEW OR NO CLOUDS BELOW 12,000 FEET WITH NO
SIGNIFICANT WEATHER AND/OR OBSTRUCTIONS TO VISIBILITY.

OHZ001>008-015>018-024>027-034-035-043-044-292300-
   NORTHWEST OHIO

CITY           SKY/WX    TMP DP  RH WIND       PRES   REMARKS
DEFIANCE       RAIN      64  58  80 NE9       30.13R
FINDLAY        LGT RAIN  61  57  87 NE5       30.10R
TOLEDO EXPRESS RAIN      60  60 100 N13       30.11F FOG
TOLEDO EXEC    LGT RAIN  64  62  93 NE9       30.12S
LIMA           CLOUDY    62  57  83 NE10      30.10S
$$

OHZ009>014-019>023-028>033-038-089-292300-
   NORTHEAST OHIO

CITY           SKY/WX    TMP DP  RH WIND       PRES   REMARKS
CLE-HOPKINS    TSTM      63  59  87 NE14      30.13F FOG
CLE-LAKEFRONT  LGT RAIN  64  59  83 CALM      30.13R
CUY CO. ARPT   CLOUDY    63  63 100 E9        30.14R
LORAIN-ELYRIA  NOT AVBL
ASHTABULA      CLOUDY    64  61  90 E5        30.17R
AKRON-CANTON   RAIN      60  57  89 NE12      30.09F FOG
WOOSTER        PTSUNNY   61  59  93 NE13      30.09F
MANSFIELD      CLOUDY    60  60 100 NW7       30.11R FOG
YOUNGSTOWN     CLOUDY    64  57  78 E16G26    30.13R
$$

OHZ042-051>053-060>062-070>072-077>081-292300-
  SOUTHWEST OHIO

CITY           SKY/WX    TMP DP  RH WIND       PRES   REMARKS
CINC-COVINGTON PTSUNNY   64  52  64 NE7       30.07S
CINC-LUNKEN    PTSUNNY   62  58  86 CALM      30.07F
HAMILTON       PTSUNNY   65  53  65 CALM      30.08S
DAYTON         PTSUNNY   60  55  83 E10       30.10R
WRIGHT-PAT AFB PTSUNNY   61  57  86 CALM      30.08R
DAYTON GENERAL PTSUNNY   64  52  64 NE5       30.07R
WILMINGTON     LGT RAIN  60  56  86 N8        30.06F FOG
$$

OHZ036-037-039>041-045>050-054>059-063>069-073>076-082>088-292300-
  CENTRAL AND SOUTHEAST OHIO

CITY           SKY/WX    TMP DP  RH WIND       PRES   REMARKS
COLUMBUS       CLOUDY    64  62  93 N10       30.04F
OSU AIRPORT    FAIR      61  60  97 NW9       30.06F
BOLTON FIELD   CLOUDY    61  54  77 N7        30.06F
RICKENBACK AFB FAIR      61  57  86 N10       30.04S
NEWARK         PTSUNNY   64  60  87 N3        30.06R
MARION         LGT RAIN  60  57  89 N5        30.10R
LANCASTER      PTSUNNY   64  61  90 N8        30.04F
ZANESVILLE     PTSUNNY   64  61  90 E6        30.05R
NEW PHILLY     FAIR      63  60  90 CALM      30.08R
$$



USA.gov is the U.S. government's official web portal to all federal, state and local government web resources and services.